Terminal Aerodrome Forecast
Issued by NWS St Louis, MO

Home | Current Version | Previous Version | Text Only | Print | Product List | Glossary On
Versions: 1 2 3 4 5 6 7 8 9 10 11 12 13 14 15 16 17 18 19 20 21 22 23 24 25 26 27
000
FTUS43 KLSX 030300 AAA
TAFSTL
TAF AMD
KSTL 030301Z 0303/0406 15006KT P6SM BKN100
     FM031400 19011KT P6SM SCT100
     FM031900 19012G20KT P6SM SCT200=

USA.gov is the U.S. government's official web portal to all federal, state and local government web resources and services.